Find Starlink 4475

NORAD ID: 53545 Int'l Des: 2022-101 Owner: SPXS Country: US Constellation: starlink operational
LEOCIRCULAR

实时位置

正在加载3D地球...

关于 Starlink 4475

正在加载描述...

即将过境

Passes for default location (London). Set your location on the main map for personalized predictions.

高度历史

Loading altitude history...

两行轨道根数

1 53545U 22101U 26123.41380245 .00000212 00000-0 31407-4 0 9993
2 53545 53.2171 178.4530 0001085 82.3292 277.7824 15.08841844205255
Epoch: May 3, 2026 • Age: 16 hours

当前状态

高度 543.8 km
速度 7.59 km/s
星下点 -14.69°S, 83.93°W
发射日期 Aug 19, 2022
运行时间 3.7 years
类型 internet

技术详情

分类 Payload
质量 300.00 kg
干质量 290.00 kg
总质量 300.00 kg
长度 0.20 m
直径 2.80 m
跨度 9.00 m
形状 Box + pan
制造商 SPXS
平台类型 Starlink
阶段状态 In Orbit
所有者/国家 SPXS/US

Most Searched